カタログに戻る

INTELSAT 4-F8

運用中通信GEO
NORAD 7544·PAYLOAD· XX

打ち上げ Nov 21, 1974 から Cape Canaveral Space Force Station

Loading…

TLE

最新Source: Space-Track

元期: Sep 14, 2026, 15:53 UTC

1 07544U 74093A   26257.66237473 -.00000054  00000-0  00000-0 0  9993
2 07544   7.7844 303.9622 0003768 230.5870 138.1889  0.99779029126106

AllMySatでINTELSAT 4-F8をリアルタイム追跡

Download on the App Store